Location: Brno
(49.2000°N, 16.6330°E)
Time: 02:58:29
(UTC+01:00)

ISS - Pass Details

Date: 05 December 2021
Orbit: 413 x 422 km, 51.6° (Epoch: 22 January)

Event Time Altitude Azimuth Distance (km) Brightness Sun altitude
Rises 18:40:55 0° 284° (WNW) 2,382 1.2 -25.9°
Reaches altitude 10° 18:43:31 10° 264° (W) 1,510 0.1 -26.3°
Maximum altitude 18:45:47 17° 222° (SW) 1,150 -1.1 -26.7°
Enters shadow 18:45:55 17° 219° (SW) 1,150 -1.1 -26.7°
